Powrót do katalogu

SL-12 DEB

LostHEO
NORAD 29326·DEBRIS·🇷🇺 Russia

Wystrzelony May 31, 1989 z Baikonur Cosmodrome

Loading…

Następne Przeloty (najbliższe 24 godziny)

TLE

NieaktualneSource: Space-Track

Epoka: Jan 16, 2007, 19:12 UTC

1 29326U 89039AH  07016.80009701  .03296854  00000-0  20806+0 0  9992
2 29326 064.9882 203.1841 4886485 061.5622 339.0960 05.87858409  1077

Śledź SL-12 DEB w czasie rzeczywistym z AllMySat

Download on the App Store